| time (UTC) | temp C | wind direction | speed KPH | gust KPH | rain 1hr cm | rain 24hr cm | rain mn cm | humidity % | barometer mb |
| 20260901000518 | 27 | 113 | 1.6 | 3.2 | 0.00 | 0.00 | 0.00 | 82 | 1018.7 |
| 20260831235518 | 27 | 113 | 1.6 | 4.8 | 0.00 | 0.00 | 0.00 | 80 | 1018.7 |
| 20260831234518 | 27 | 113 | 1.6 | 4.8 | 0.00 | 0.00 | 0.00 | 78 | 1018.7 |
| 20260831233520 | 28 | 158 | 1.6 | 3.2 | 0.00 | 0.00 | 0.00 | 77 | 1018.6 |
| 20260831232518 | 28 | 0.0 | 3.2 | 0.00 | 0.00 | 0.00 | 75 | 1018.7 | |
| 20260831231540 | 28 | 158 | 1.6 | 3.2 | 0.00 | 0.00 | 0.00 | 74 | 1018.9 |
| 20260831230518 | 28 | 158 | 1.6 | 3.2 | 0.00 | 0.00 | 0.00 | 73 | 1018.8 |
| 20260831225518 | 29 | 158 | 3.2 | 6.4 | 0.00 | 0.00 | 0.00 | 73 | 1018.6 |
| 20260831224518 | 29 | 158 | 3.2 | 8.0 | 0.00 | 0.00 | 0.00 | 73 | 1018.5 |
| 20260831223520 | 29 | 180 | 3.2 | 8.0 | 0.00 | 0.00 | 0.00 | 71 | 1018.6 |
| 20260831222518 | 30 | 158 | 3.2 | 8.0 | 0.00 | 0.00 | 0.00 | 72 | 1018.5 |
| 20260831221520 | 30 | 180 | 3.2 | 8.0 | 0.00 | 0.00 | 0.00 | 71 | 1018.5 |
| 20260831220518 | 30 | 203 | 3.2 | 9.7 | 0.00 | 0.00 | 0.00 | 71 | 1018.4 |
| 20260831215540 | 30 | 158 | 4.8 | 9.7 | 0.00 | 0.00 | 0.00 | 71 | 1018.4 |
| 20260831214520 | 28 | 225 | 3.2 | 8.0 | 0.00 | 0.00 | 0.00 | 73 | 1018.2 |
| 20260831213520 | 28 | 135 | 1.6 | 8.0 | 0.00 | 0.00 | 0.00 | 72 | 1018.2 |
| 20260831212520 | 28 | 203 | 3.2 | 9.7 | 0.00 | 0.00 | 0.00 | 72 | 1018.0 |
| 20260831211539 | 29 | 180 | 6.4 | 12.9 | 0.00 | 0.00 | 0.00 | 70 | 1017.9 |
| 20260831210519 | 29 | 180 | 4.8 | 12.9 | 0.00 | 0.00 | 0.00 | 68 | 1018.0 |
| 20260831205519 | 29 | 135 | 1.6 | 6.4 | 0.00 | 0.00 | 0.00 | 68 | 1018.0 |
| 20260831204538 | 30 | 270 | 6.4 | 14.5 | 0.00 | 0.00 | 0.00 | 66 | 1018.1 |
| 20260831203519 | 29 | 270 | 4.8 | 11.3 | 0.00 | 0.00 | 0.00 | 68 | 1018.2 |
| 20260831202518 | 29 | 293 | 3.2 | 17.7 | 0.00 | 0.00 | 0.00 | 68 | 1018.2 |
| 20260831201558 | 28 | 293 | 4.8 | 11.3 | 0.00 | 0.00 | 0.00 | 69 | 1018.3 |
| 20260831200519 | 28 | 180 | 3.2 | 11.3 | 0.00 | 0.00 | 0.00 | 69 | 1018.4 |
| 20260831195519 | 28 | 180 | 3.2 | 11.3 | 0.00 | 0.00 | 0.00 | 68 | 1018.5 |
| 20260831194518 | 28 | 270 | 8.0 | 14.5 | 0.00 | 0.00 | 0.00 | 70 | 1018.7 |
| 20260831193519 | 28 | 293 | 6.4 | 16.1 | 0.00 | 0.00 | 0.00 | 70 | 1018.9 |
| 20260831192519 | 28 | 293 | 4.8 | 17.7 | 0.00 | 0.00 | 0.00 | 71 | 1018.9 |
| 20260831191518 | 28 | 270 | 6.4 | 14.5 | 0.00 | 0.00 | 0.00 | 73 | 1019.1 |
| 20260831190518 | 28 | 293 | 6.4 | 20.9 | 0.00 | 0.00 | 0.00 | 72 | 1019.4 |
| 20260831185518 | 28 | 293 | 6.4 | 19.3 | 0.00 | 0.00 | 0.00 | 70 | 1019.5 |
| 20260831184518 | 28 | 270 | 9.7 | 22.5 | 0.00 | 0.00 | 0.00 | 67 | 1019.5 |
| 20260831183559 | 30 | 293 | 9.7 | 24.1 | 0.00 | 0.00 | 0.00 | 68 | 1019.5 |
| 20260831182518 | 29 | 293 | 6.4 | 17.7 | 0.00 | 0.00 | 0.00 | 69 | 1019.3 |
| 20260831181518 | 28 | 270 | 8.0 | 19.3 | 0.00 | 0.00 | 0.00 | 70 | 1019.4 |
| 20260831180518 | 28 | 270 | 6.4 | 17.7 | 0.00 | 0.03 | 0.00 | 71 | 1019.5 |
| 20260831175518 | 28 | 270 | 6.4 | 17.7 | 0.00 | 0.03 | 0.00 | 71 | 1019.6 |
| 20260831174518 | 28 | 270 | 6.4 | 17.7 | 0.00 | 0.03 | 0.00 | 70 | 1019.7 |
| 20260831173519 | 29 | 270 | 8.0 | 17.7 | 0.00 | 0.03 | 0.00 | 69 | 1019.8 |
| 20260831172518 | 29 | 315 | 4.8 | 14.5 | 0.00 | 0.03 | 0.00 | 69 | 1020.0 |
| 20260831171518 | 30 | 270 | 8.0 | 17.7 | 0.00 | 0.03 | 0.00 | 69 | 1020.2 |
| 20260831170538 | 30 | 270 | 9.7 | 20.9 | 0.00 | 0.03 | 0.00 | 70 | 1020.3 |
| 20260831165518 | 29 | 270 | 4.8 | 19.3 | 0.00 | 0.03 | 0.00 | 70 | 1020.4 |
| 20260831164518 | 30 | 270 | 9.7 | 20.9 | 0.00 | 0.03 | 0.00 | 68 | 1020.4 |
| 20260831163538 | 29 | 270 | 8.0 | 19.3 | 0.00 | 0.03 | 0.00 | 71 | 1020.3 |
| 20260831162518 | 29 | 248 | 8.0 | 16.1 | 0.00 | 0.03 | 0.00 | 71 | 1020.4 |
| 20260831161518 | 29 | 270 | 8.0 | 19.3 | 0.00 | 0.03 | 0.00 | 72 | 1020.4 |
| 20260831160540 | 30 | 270 | 9.7 | 17.7 | 0.00 | 0.03 | 0.00 | 69 | 1020.4 |
| 20260831155558 | 29 | 270 | 8.0 | 19.3 | 0.00 | 0.03 | 0.00 | 70 | 1020.3 |
| 20260831154518 | 30 | 270 | 6.4 | 16.1 | 0.00 | 0.03 | 0.00 | 69 | 1020.3 |
| 20260831153520 | 30 | 270 | 6.4 | 16.1 | 0.00 | 0.03 | 0.00 | 68 | 1020.3 |
| 20260831152520 | 29 | 315 | 6.4 | 22.5 | 0.00 | 0.03 | 0.00 | 69 | 1020.3 |
| 20260831151518 | 29 | 270 | 6.4 | 14.5 | 0.00 | 0.03 | 0.00 | 67 | 1020.3 |
| 20260831150520 | 28 | 270 | 6.4 | 14.5 | 0.00 | 0.03 | 0.00 | 67 | 1020.4 |
| 20260831145519 | 28 | 270 | 6.4 | 16.1 | 0.00 | 0.03 | 0.00 | 66 | 1020.3 |
| 20260831144539 | 28 | 270 | 6.4 | 16.1 | 0.00 | 0.03 | 0.00 | 67 | 1020.4 |
| 20260831143519 | 28 | 270 | 8.0 | 17.7 | 0.00 | 0.03 | 0.00 | 69 | 1020.3 |
| 20260831142519 | 27 | 270 | 3.2 | 9.7 | 0.00 | 0.03 | 0.00 | 73 | 1020.1 |
| 20260831141519 | 27 | 225 | 6.4 | 11.3 | 0.00 | 0.03 | 0.00 | 73 | 1019.9 |
| 20260831140559 | 27 | 158 | 3.2 | 11.3 | 0.00 | 0.03 | 0.00 | 75 | 1019.7 |
| 20260831135519 | 26 | 203 | 4.8 | 11.3 | 0.00 | 0.03 | 0.00 | 76 | 1019.7 |
| 20260831134519 | 26 | 180 | 6.4 | 11.3 | 0.00 | 0.03 | 0.00 | 77 | 1019.6 |
| 20260831133519 | 25 | 180 | 4.8 | 11.3 | 0.00 | 0.03 | 0.00 | 79 | 1019.6 |
| 20260831132519 | 25 | 180 | 4.8 | 9.7 | 0.00 | 0.03 | 0.00 | 81 | 1019.6 |
| 20260831131519 | 24 | 203 | 4.8 | 9.7 | 0.00 | 0.03 | 0.00 | 81 | 1019.8 |
| 20260831130519 | 23 | 180 | 4.8 | 12.9 | 0.00 | 0.03 | 0.00 | 83 | 1019.7 |
| 20260831125519 | 23 | 180 | 4.8 | 11.3 | 0.00 | 0.03 | 0.00 | 83 | 1019.6 |
| 20260831124519 | 23 | 180 | 6.4 | 16.1 | 0.00 | 0.03 | 0.00 | 83 | 1019.4 |
| 20260831123559 | 23 | 158 | 6.4 | 16.1 | 0.00 | 0.03 | 0.00 | 83 | 1019.3 |
| 20260831122519 | 23 | 180 | 4.8 | 12.9 | 0.00 | 0.03 | 0.00 | 83 | 1019.5 |
| 20260831121518 | 23 | 180 | 4.8 | 12.9 | 0.00 | 0.03 | 0.00 | 83 | 1019.5 |
| 20260831120639 | 23 | 180 | 4.8 | 12.9 | 0.00 | 0.03 | 0.00 | 83 | 1019.5 |
| 20260831115518 | 23 | 180 | 4.8 | 11.3 | 0.00 | 0.03 | 0.00 | 83 | 1019.6 |
| 20260831114519 | 23 | 135 | 3.2 | 9.7 | 0.00 | 0.03 | 0.00 | 83 | 1019.5 |
| 20260831113519 | 23 | 158 | 4.8 | 12.9 | 0.00 | 0.03 | 0.00 | 83 | 1019.5 |
| 20260831112518 | 22 | 180 | 3.2 | 8.0 | 0.00 | 0.03 | 0.00 | 84 | 1019.5 |
| 20260831111519 | 22 | 158 | 4.8 | 14.5 | 0.00 | 0.03 | 0.00 | 83 | 1019.6 |
| 20260831110519 | 22 | 180 | 3.2 | 8.0 | 0.00 | 0.03 | 0.00 | 83 | 1019.4 |
| 20260831105519 | 23 | 180 | 4.8 | 8.0 | 0.00 | 0.03 | 0.00 | 83 | 1019.3 |
| 20260831104559 | 23 | 158 | 3.2 | 8.0 | 0.00 | 0.03 | 0.00 | 83 | 1019.3 |
| 20260831103518 | 23 | 158 | 3.2 | 8.0 | 0.00 | 0.03 | 0.00 | 83 | 1019.3 |
| 20260831102538 | 23 | 180 | 4.8 | 12.9 | 0.00 | 0.03 | 0.00 | 83 | 1019.2 |
| 20260831101519 | 23 | 270 | 1.6 | 4.8 | 0.00 | 0.03 | 0.00 | 83 | 1019.2 |
| 20260831100518 | 23 | 180 | 3.2 | 8.0 | 0.00 | 0.03 | 0.00 | 83 | 1019.1 |
| 20260831095518 | 23 | 158 | 4.8 | 8.0 | 0.00 | 0.03 | 0.00 | 83 | 1018.9 |
| 20260831094518 | 22 | 203 | 3.2 | 11.3 | 0.00 | 0.03 | 0.00 | 83 | 1018.9 |
| 20260831093538 | 22 | 180 | 1.6 | 6.4 | 0.00 | 0.03 | 0.00 | 83 | 1018.9 |
| 20260831092538 | 23 | 158 | 4.8 | 12.9 | 0.00 | 0.03 | 0.00 | 83 | 1018.9 |
| 20260831091518 | 22 | 180 | 6.4 | 11.3 | 0.00 | 0.03 | 0.00 | 83 | 1018.9 |
| 20260831090518 | 22 | 180 | 4.8 | 9.7 | 0.00 | 0.03 | 0.00 | 84 | 1018.9 |
| 20260831085518 | 22 | 158 | 4.8 | 9.7 | 0.00 | 0.03 | 0.00 | 85 | 1018.8 |
| 20260831084518 | 22 | 203 | 1.6 | 4.8 | 0.00 | 0.03 | 0.00 | 85 | 1019.2 |
| 20260831083518 | 22 | 248 | 1.6 | 3.2 | 0.00 | 0.03 | 0.00 | 85 | 1019.3 |
| 20260831082518 | 22 | 0.0 | 4.8 | 0.00 | 0.03 | 0.00 | 86 | 1019.4 | |
| 20260831081518 | 22 | 0.0 | 0.0 | 0.00 | 0.03 | 0.00 | 86 | 1019.4 | |
| 20260831080538 | 22 | 0.0 | 4.8 | 0.00 | 0.03 | 0.00 | 85 | 1019.3 | |
| 20260831075518 | 22 | 0.0 | 1.6 | 0.00 | 0.03 | 0.00 | 85 | 1019.3 | |
| 20260831074518 | 22 | 0.0 | 4.8 | 0.00 | 0.03 | 0.00 | 83 | 1019.3 | |
| 20260831073518 | 22 | 0.0 | 1.6 | 0.00 | 0.03 | 0.00 | 82 | 1019.4 | |
| 20260831072518 | 23 | 180 | 1.6 | 4.8 | 0.00 | 0.03 | 0.00 | 81 | 1019.3 |
| 20260831071538 | 23 | 180 | 1.6 | 3.2 | 0.00 | 0.03 | 0.00 | 81 | 1019.3 |
| 20260831070518 | 23 | 180 | 3.2 | 6.4 | 0.00 | 0.03 | 0.00 | 81 | 1019.4 |
| 20260831065518 | 22 | 180 | 3.2 | 6.4 | 0.00 | 0.03 | 0.00 | 82 | 1019.4 |
| 20260831064520 | 22 | 180 | 3.2 | 9.7 | 0.00 | 0.03 | 0.00 | 84 | 1019.5 |
| 20260831063520 | 22 | 158 | 3.2 | 11.3 | 0.00 | 0.03 | 0.00 | 85 | 1019.5 |
| 20260831062518 | 22 | 180 | 1.6 | 6.4 | 0.00 | 0.03 | 0.00 | 86 | 1019.6 |
| 20260831061520 | 22 | 180 | 4.8 | 9.7 | 0.00 | 0.03 | 0.00 | 87 | 1019.6 |
| 20260831060520 | 22 | 158 | 4.8 | 9.7 | 0.00 | 0.03 | 0.00 | 87 | 1019.6 |
| 20260831055540 | 22 | 158 | 1.6 | 6.4 | 0.00 | 0.03 | 0.00 | 87 | 1019.6 |
| 20260831054519 | 22 | 158 | 3.2 | 9.7 | 0.00 | 0.03 | 0.00 | 87 | 1019.6 |
| 20260831053519 | 22 | 158 | 4.8 | 9.7 | 0.00 | 0.03 | 0.00 | 87 | 1019.7 |
| 20260831052519 | 22 | 158 | 3.2 | 8.0 | 0.00 | 0.03 | 0.00 | 86 | 1019.9 |
| 20260831051539 | 22 | 158 | 4.8 | 9.7 | 0.00 | 0.03 | 0.00 | 86 | 1019.9 |
| 20260831050559 | 22 | 135 | 3.2 | 8.0 | 0.00 | 0.03 | 0.00 | 86 | 1019.9 |
| 20260831045538 | 22 | 158 | 3.2 | 8.0 | 0.00 | 0.03 | 0.00 | 86 | 1019.8 |
| 20260831044559 | 22 | 158 | 3.2 | 8.0 | 0.00 | 0.03 | 0.00 | 86 | 1019.8 |
| 20260831043519 | 22 | 135 | 3.2 | 9.7 | 0.00 | 0.03 | 0.00 | 87 | 1019.8 |
| 20260831042519 | 22 | 180 | 4.8 | 8.0 | 0.00 | 0.03 | 0.00 | 87 | 1019.7 |
| 20260831040518 | 22 | 158 | 4.8 | 11.3 | 0.00 | 0.03 | 0.00 | 87 | 1019.8 |
| 20260831035518 | 22 | 158 | 6.4 | 12.9 | 0.00 | 0.03 | 0.03 | 87 | 1019.8 |
| 20260831034538 | 22 | 135 | 4.8 | 12.9 | 0.00 | 0.03 | 0.03 | 87 | 1019.9 |
| 20260831033558 | 22 | 158 | 3.2 | 9.7 | 0.00 | 0.03 | 0.03 | 88 | 1019.9 |
| 20260831032520 | 22 | 135 | 3.2 | 8.0 | 0.00 | 0.03 | 0.03 | 88 | 1020.0 |
| 20260831031520 | 22 | 135 | 4.8 | 8.0 | 0.00 | 0.03 | 0.03 | 88 | 1020.0 |
| 20260831030518 | 22 | 135 | 4.8 | 11.3 | 0.00 | 0.03 | 0.03 | 89 | 1020.0 |
| 20260831025518 | 22 | 135 | 4.8 | 8.0 | 0.00 | 0.03 | 0.03 | 90 | 1020.0 |
| 20260831024520 | 22 | 135 | 3.2 | 6.4 | 0.00 | 0.03 | 0.03 | 90 | 1020.1 |
| 20260831023519 | 22 | 135 | 3.2 | 6.4 | 0.00 | 0.03 | 0.03 | 90 | 1020.0 |
| 20260831022538 | 22 | 135 | 3.2 | 8.0 | 0.00 | 0.03 | 0.03 | 90 | 1020.0 |
| 20260831021518 | 22 | 113 | 3.2 | 6.4 | 0.00 | 0.03 | 0.03 | 90 | 1020.1 |
| 20260831020519 | 22 | 113 | 3.2 | 6.4 | 0.00 | 0.03 | 0.03 | 90 | 1020.1 |
| 20260831015519 | 23 | 113 | 3.2 | 6.4 | 0.00 | 0.03 | 0.03 | 90 | 1020.0 |
| 20260831014519 | 23 | 135 | 3.2 | 8.0 | 0.00 | 0.03 | 0.03 | 90 | 1019.9 |
| 20260831013519 | 23 | 113 | 3.2 | 6.4 | 0.00 | 0.03 | 0.03 | 90 | 1019.9 |
| 20260831012519 | 23 | 113 | 4.8 | 8.0 | 0.00 | 0.03 | 0.03 | 89 | 1019.8 |
| 20260831011518 | 23 | 113 | 1.6 | 4.8 | 0.00 | 0.03 | 0.03 | 89 | 1019.9 |
| 20260831010519 | 23 | 135 | 1.6 | 6.4 | 0.00 | 0.03 | 0.03 | 88 | 1019.8 |
| 20260831005519 | 23 | 113 | 1.6 | 4.8 | 0.00 | 0.03 | 0.03 | 87 | 1019.7 |
| 20260831004518 | 23 | 113 | 1.6 | 4.8 | 0.00 | 0.03 | 0.03 | 86 | 1019.6 |
| 20260831003519 | 23 | 113 | 3.2 | 6.4 | 0.00 | 0.03 | 0.03 | 85 | 1019.5 |
| 20260831002519 | 24 | 113 | 1.6 | 6.4 | 0.00 | 0.03 | 0.03 | 84 | 1019.7 |
| 20260831001518 | 25 | 113 | 1.6 | 3.2 | 0.00 | 0.03 | 0.03 | 83 | 1019.9 |